Tracking 23764 objects as of 17-Oct-2021
HD Live streaming from Space Station
objects crossing your sky now

IRIDIUM 33 DEB

Track IRIDIUM 33 DEB now!
10-day predictions


NORAD ID: 36495
Int'l Code: 1997-051WM
Perigee: 408.1 km
Apogee: 431.1 km
Inclination: 86.4 °
Period: 92.8 minutes
Semi major axis: 6790 km
RCS: 0.0009 m2 (small)
Launch date: September 14, 1997
Source: United States (US)
Launch site: TYURATAM MISSILE AND SPACE COMPLEX (TTMTR)

Note: This is SATELLITE DEBRIS
aabbcc
Your satellite tracking list
Your tracking list is empty




NASA's NSSDC Master Catalog

Two Line Element Set (TLE):
1 36495U 97051WM  21277.68197283  .00484909  00000-0  77145-2 0  9992
2 36495  86.3546 255.3556 0016919 112.8708 247.4340 15.51470102472389
Source of the keplerian elements: AFSPC